AMAZONAS 2

Last updated on Thu Aug 13 2026 00:02:58 GMT+0000 (Coordinated Universal Time)

1 35942U 09054A 26224.50600207 -.00000277 00000+0 00000+0 0 9992 2 35942 1.9563 82.2899 0003244 59.5763 289.2362 1.00269489 61744
UTC large
Height (km)
Speed (km/s)
/
Latitude / Longitude
Inclination (degrees)
Orbital Period (minutes)
Azimuth
Elevation
Range (km)
Doppler Factor

Next 0 passes for location: London (51.5072 / 0.1276)

No passes found over London.
AMAZONAS 2